KE6AFE Weather Reports


time (UTC)temp
C
wind
direction
speed
KPH
gust
KPH
rain 1hr
cm
rain 24hr
cm
rain mn
cm
humidity
%
barometer
mb
20260510215506 24 1 0.0 0.0 0.00 0.00 0.00 50 1015.4
20260510214456 24 1 0.0 0.0 0.00 0.00 0.00 50 1015.4
20260510213446 23 1 0.0 0.0 0.00 0.00 0.00 51 1015.6
20260510212436 23 1 0.0 0.0 0.00 0.00 0.00 52 1015.6
20260510211426 23 1 0.0 0.0 0.00 0.00 0.00 52 1015.7
20260510210416 23 1 0.0 0.0 0.00 0.00 0.00 54 1015.8
20260510205406 22 1 0.0 0.0 0.00 0.00 0.00 55 1015.7
20260510204356 22 1 0.0 0.0 0.00 0.00 0.00 55 1015.8
20260510203345 22 1 0.0 0.0 0.00 0.00 0.00 56 1015.9
20260510202335 21 1 0.0 0.0 0.00 0.00 0.00 57 1016.0
20260510201325 21 1 0.0 0.0 0.00 0.00 0.00 59 1016.1
20260510200315 21 1 0.0 0.0 0.00 0.00 0.00 59 1016.2
20260510195306 20 1 0.0 0.0 0.00 0.00 0.00 59 1016.2
20260510194255 20 1 0.0 0.0 0.00 0.00 0.00 60 1016.2
20260510193245 20 1 0.0 0.0 0.00 0.00 0.00 60 1016.4
20260510192235 19 2 0.0 0.0 0.00 0.00 0.00 61 1016.3
20260510191225 19 1 0.0 0.0 0.00 0.00 0.00 61 1016.3
20260510190215 18 1 0.0 0.0 0.00 0.00 0.00 61 1016.5
20260510185205 18 2 0.0 0.0 0.00 0.00 0.00 62 1016.6
20260510184155 18 1 0.0 0.0 0.00 0.00 0.00 64 1016.6
20260510183145 17 2 0.0 0.0 0.00 0.00 0.00 64 1016.6
20260510182136 17 1 0.0 0.0 0.00 0.00 0.00 65 1016.7
20260510181125 17 2 0.0 0.0 0.00 0.00 0.00 65 1016.7
20260510180115 17 1 0.0 0.0 0.00 0.00 0.00 65 1016.7
20260510175105 17 1 0.0 0.0 0.00 0.00 0.00 65 1016.8
20260510174055 17 1 0.0 0.0 0.00 0.00 0.00 65 1016.8
20260510173045 17 1 0.0 0.0 0.00 0.00 0.00 66 1016.7
20260510172035 17 2 0.0 0.0 0.00 0.00 0.00 66 1016.6
20260510171025 16 1 0.0 0.0 0.00 0.00 0.00 68 1016.4
20260510170015 16 1 0.0 0.0 0.00 0.00 0.00 69 1016.5
20260510165005 16 1 0.0 0.0 0.00 0.00 0.00 69 1016.5
20260510163955 16 1 0.0 0.0 0.00 0.00 0.00 69 1016.5
20260510162945 16 2 0.0 0.0 0.00 0.00 0.00 69 1016.4
20260510161935 16 2 0.0 0.0 0.00 0.00 0.00 69 1016.3
20260510160925 16 1 0.0 0.0 0.00 0.00 0.00 69 1016.2
20260510155915 15 1 0.0 0.0 0.00 0.00 0.00 69 1016.2
20260510154905 15 1 0.0 0.0 0.00 0.00 0.00 72 1016.2
20260510153855 14 2 0.0 0.0 0.00 0.00 0.00 73 1016.1
20260510152845 13 2 0.0 0.0 0.00 0.00 0.00 75 1016.1
20260510151835 13 2 0.0 0.0 0.00 0.00 0.00 76 1016.0
20260510150825 13 2 0.0 0.0 0.00 0.00 0.00 74 1016.0
20260510145815 12 2 0.0 0.0 0.00 0.00 0.00 73 1016.0
20260510144805 12 2 0.0 0.0 0.00 0.00 0.00 74 1015.9
20260510143755 12 2 0.0 0.0 0.00 0.00 0.00 74 1016.0
20260510142745 12 2 0.0 0.0 0.00 0.00 0.00 75 1015.9
20260510141735 12 2 0.0 0.0 0.00 0.00 0.00 75 1015.8
20260510140725 12 2 0.0 0.0 0.00 0.00 0.00 75 1015.7
20260510135715 12 2 0.0 0.0 0.00 0.00 0.00 75 1015.5
20260510134705 12 2 0.0 0.0 0.00 0.00 0.00 75 1015.5
20260510133655 12 2 0.0 0.0 0.00 0.00 0.00 75 1015.3
20260510132645 12 2 0.0 0.0 0.00 0.00 0.00 75 1015.2
20260510131635 12 2 0.0 0.0 0.00 0.00 0.00 75 1015.1
20260510130625 12 2 0.0 0.0 0.00 0.00 0.00 75 1015.1
20260510125615 12 1 0.0 0.0 0.00 0.00 0.00 76 1015.1
20260510124605 12 2 0.0 0.0 0.00 0.00 0.00 76 1015.1
20260510123555 12 2 0.0 0.0 0.00 0.00 0.00 76 1015.1
20260510122545 12 2 0.0 0.0 0.00 0.00 0.00 76 1015.1
20260510121535 12 2 0.0 0.0 0.00 0.00 0.00 76 1015.1
20260510120525 11 1 0.0 0.0 0.00 0.00 0.00 76 1015.1
20260510115515 11 2 0.0 0.0 0.00 0.00 0.00 75 1015.1
20260510114505 11 2 0.0 0.0 0.00 0.00 0.00 75 1015.1
20260510113455 11 3 0.0 0.0 0.00 0.00 0.00 75 1015.1
20260510112445 11 2 0.0 0.0 0.00 0.00 0.00 74 1015.1
20260510111435 11 1 0.0 0.0 0.00 0.00 0.00 74 1015.0
20260510110425 11 2 0.0 0.0 0.00 0.00 0.00 73 1015.0
20260510105415 11 2 0.0 0.0 0.00 0.00 0.00 73 1015.0
20260510104405 11 2 0.0 0.0 0.00 0.00 0.00 73 1014.9
20260510103355 12 2 0.0 0.0 0.00 0.00 0.00 73 1015.0
20260510102345 12 2 0.0 0.0 0.00 0.00 0.00 73 1015.1
20260510101335 12 2 0.0 0.0 0.00 0.00 0.00 73 1015.1
20260510100325 12 2 0.0 0.0 0.00 0.00 0.00 73 1015.0
20260510095315 12 2 0.0 0.0 0.00 0.00 0.00 73 1015.0
20260510094305 12 2 0.0 0.0 0.00 0.00 0.00 73 1015.0
20260510093255 12 1 0.0 0.0 0.00 0.00 0.00 73 1015.1
20260510092245 12 2 0.0 0.0 0.00 0.00 0.00 72 1015.1
20260510091235 12 2 0.0 0.0 0.00 0.00 0.00 72 1015.3
20260510090225 12 2 0.0 0.0 0.00 0.00 0.00 71 1015.2
20260510085215 12 2 0.0 0.0 0.00 0.00 0.00 71 1015.2
20260510084205 13 2 0.0 0.0 0.00 0.00 0.00 71 1015.4
20260510083155 13 2 0.0 0.0 0.00 0.00 0.00 71 1015.5
20260510082145 13 2 0.0 0.0 0.00 0.00 0.00 71 1015.5
20260510081135 13 2 0.0 0.0 0.00 0.00 0.00 70 1015.4
20260510080125 13 2 0.0 0.0 0.00 0.00 0.00 70 1015.5
20260510075115 13 2 0.0 0.0 0.00 0.00 0.00 71 1015.6
20260510074105 14 2 0.0 0.0 0.00 0.00 0.00 70 1015.6
20260510073055 14 2 0.0 0.0 0.00 0.00 0.00 70 1015.6
20260510072045 14 2 0.0 0.0 0.00 0.00 0.00 71 1015.6
20260510071035 14 2 0.0 0.0 0.00 0.00 0.00 72 1015.6
20260510070025 14 1 0.0 0.0 0.00 0.00 0.00 72 1015.7
20260510065015 15 2 0.0 0.0 0.00 0.00 0.00 72 1015.7
20260510064005 15 2 0.0 0.0 0.00 0.00 0.00 71 1015.8
20260510062955 15 2 0.0 0.0 0.00 0.00 0.00 71 1015.9
20260510061945 15 2 0.0 0.0 0.00 0.00 0.00 70 1015.9
20260510060935 15 2 0.0 0.0 0.00 0.00 0.00 70 1015.9
20260510055925 15 2 0.0 0.0 0.00 0.00 0.00 70 1015.9
20260510054915 15 2 0.0 0.0 0.00 0.00 0.00 70 1015.9
20260510053905 15 1 0.0 0.0 0.00 0.00 0.00 70 1015.9
20260510052855 15 2 0.0 0.0 0.00 0.00 0.00 69 1016.0
20260510051845 16 1 0.0 0.0 0.00 0.00 0.00 69 1015.9
20260510050835 16 2 0.0 0.0 0.00 0.00 0.00 68 1015.8
20260510045825 16 2 0.0 0.0 0.00 0.00 0.00 67 1015.8
20260510044815 16 1 0.0 0.0 0.00 0.00 0.00 66 1015.7
20260510043805 16 2 0.0 0.0 0.00 0.00 0.00 66 1015.7
20260510042755 17 1 0.0 0.0 0.00 0.00 0.00 64 1015.6
20260510041745 17 1 0.0 0.0 0.00 0.00 0.00 64 1015.5
20260510040735 17 1 0.0 0.0 0.00 0.00 0.00 64 1015.4
20260510035725 17 1 0.0 0.0 0.00 0.00 0.00 63 1015.4
20260510034715 17 1 0.0 0.0 0.00 0.00 0.00 63 1015.3
20260510033705 17 1 0.0 0.0 0.00 0.00 0.00 63 1015.3
20260510032655 18 1 0.0 0.0 0.00 0.00 0.00 62 1015.2
20260510031645 18 1 0.0 0.0 0.00 0.00 0.00 62 1015.2
20260510030635 18 1 0.0 0.0 0.00 0.00 0.00 61 1015.2
20260510025625 18 1 0.0 0.0 0.00 0.00 0.00 60 1015.1
20260510024615 19 1 0.0 0.0 0.00 0.00 0.00 59 1015.1
20260510023605 20 1 0.0 0.0 0.00 0.00 0.00 58 1015.1
20260510022555 20 1 0.0 0.0 0.00 0.00 0.00 56 1015.0
20260510021545 21 1 0.0 0.0 0.00 0.00 0.00 55 1015.0
20260510020535 21 0 0.0 0.0 0.00 0.00 0.00 55 1015.0
20260510015525 21 0 0.0 0.0 0.00 0.00 0.00 53 1015.1
20260510014515 21 0 0.0 0.0 0.00 0.00 0.00 53 1015.1
20260510013505 22 0 0.0 0.0 0.00 0.00 0.00 52 1015.1
20260510012455 22 0 0.0 0.0 0.00 0.00 0.00 52 1015.1
20260510011445 22 0 0.0 0.0 0.00 0.00 0.00 51 1014.9
20260510010435 22 0 0.0 0.0 0.00 0.00 0.00 50 1015.0
20260510005425 23 1 0.0 0.0 0.00 0.00 0.00 49 1015.0
20260510004415 23 1 0.0 0.0 0.00 0.00 0.00 48 1015.0
20260510003405 23 1 0.0 0.0 0.00 0.00 0.00 47 1015.0
20260510002355 24 0 0.0 0.0 0.00 0.00 0.00 47 1014.9
20260510001345 25 1 0.0 0.0 0.00 0.00 0.00 46 1014.9
20260510000335 25 1 0.0 0.0 0.00 0.00 0.00 45 1014.8
20260509235325 25 0 0.0 0.0 0.00 0.00 0.00 45 1014.8
20260509234315 25 1 0.0 0.0 0.00 0.00 0.00 45 1014.8
20260509233305 25 1 0.0 0.0 0.00 0.00 0.00 46 1014.9
20260509232255 25 0 0.0 0.0 0.00 0.00 0.00 46 1014.9
20260509231245 25 1 0.0 0.0 0.00 0.00 0.00 46 1014.9
20260509230235 25 1 0.0 0.0 0.00 0.00 0.00 48 1014.9
20260509225225 25 1 0.0 0.0 0.00 0.00 0.00 48 1015.0
20260509224215 25 1 0.0 0.0 0.00 0.00 0.00 49 1015.0
20260509223205 24 1 0.0 0.0 0.00 0.00 0.00 49 1015.2
20260509222155 24 1 0.0 0.0 0.00 0.00 0.00 49 1015.2
20260509221145 23 1 0.0 0.0 0.00 0.00 0.00 50 1015.3